sat.trackr.live / text

‹ back to catalog

SHUNTIAN

NORAD 44886 · 2019-093H

PAYLOAD ACTIVE UNKNOWN

§ Identity

Operator
Country
PRC
Launch date
2019-12-20
Launch site
TAISC
Launch vehicle
Mass (kg)
RCS (m²)

External: N2YO · Heavens-Above · Gunter

§ Orbital elements

Epoch: 2026-05-25T04:26:47.696064Z

Period
96.32 min
Inclination
97.7993°
Eccentricity
0.0012897
Mean motion
14.95020638 rev/d
Perigee alt
573.3 km
Apogee alt
591.3 km
Semi-major
6,960.4 km
B*
2.9656e-4
RAAN
233.4659°
Arg perigee
137.5635°
Mean anomaly
222.6585°
Rev number
34,874

§ Raw data

SHUNTIAN1 44886U 19093H   26145.18527426  .00003191  00000+0  29656-3 0  99992 44886  97.7993 233.4659 0012897 137.5635 222.6585 14.95020638348749

JSON: /api/v1/satellites/44886 · /tle

For live sub-satellite position, see the globe view (requires WebGL).

§ Visibility from observer

Set your observer location to see the next 7 days of passes ≥ 10°. The values pass through the URL so the page stays shareable.

No JS? Fill the form by hand. The geolocation button needs JavaScript.

§ Radio — SatNOGS DB

ModeDescriptionDownlinkUplink
FM Mode U 401.952 MHz

1 transmitter · refreshed weekly from db.satnogs.org